Regional Weather Roundup
Issued by NWS

Home | Current Version | Previous Version | Text Only | Print | Product List | Glossary Off
Versions: 1 2 3 4 5 6 7 8 9 10 11 12 13 14 15 16 17 18 19 20 21 22 23 24 25 26 27 28 29 30 31 32 33 34 35 36 37 38 39 40 41 42 43 44 45 46 47 48 49 50

000
ASUS45 KTFX 251319
RWRMT
MONTANA HOURLY WEATHER ROUNDUP
NATIONAL WEATHER SERVICE GREAT FALLS MT
619 AM MST SUN JAN 25 2015

NOTE: "FAIR" INDICATES FEW OR NO CLOUDS BELOW 12000 FEET WITH NO
SIGNIFICANT WEATHER AND/OR OBSTRUCTIONS TO VISIBILITY.

* THESE STATIONS ARE NOT UNDER NWS QUALITY CONTROL. THEY DO NOT
   REPORT WEATHER SUCH AS PRECIPITATION OR FOG.

MTZ001>007-043-251400-
WEST OF THE DIVIDE
CITY           SKY/WX    TMP DP  RH WIND       PRES   REMARKS
KALISPELL      CLOUDY    37  36  96 S9        30.14F WCI  30
MISSOULA       FOG       32  32 100 S3        30.25R VSB 1/2
BUTTE          PTCLDY    36  30  79 N3        30.23F
MULLAN PASS    FOG       37  37 100 W5        30.22S VSB 1 1/4 WCI  33
* ANACONDA     PTCLDY    45  34  65 SW10       N/A
* ESSEX        N/A       35  35 100 SE1        N/A
* EUREKA APT   MOCLDY    45  37  74 SE9       30.11F
* HAMILTON APT MOCLDY    48  37  66 S9        30.22S
* LIBBY APT    CLOUDY    34  34 100 CALM      30.15F VSB M1/4
* LINCOLN      N/A       40  38  93 S5         N/A   WCI  36
* LOOKOUT PASS N/A       44  41  89 NE7        N/A
* POLSON       N/A       40  38  93 S1         N/A
* RONAN APT    MOCLDY    39  39 100 W6         N/A   WCI  35
* SEELEY LAKE  N/A       34  33  96 S2         N/A
* THOMP F APT  CLOUDY    23  21  92 NE2G8      N/A
$$

MTZ008-052>055-251400-
SOUTHWEST MONTANA
CITY           SKY/WX    TMP DP  RH WIND       PRES   REMARKS
BOZEMAN        CLOUDY    36  32  85 S3        30.20R
DILLON         PTCLDY    45  34  65 S14       30.26R
* W YELLOWSTON PTCLDY    26  24  92 SW3G10     N/A
* THREE FORKS  CLOUDY    37  36  96 N/A        N/A
* BOULDER HILL N/A       45  31  58 S2G10      N/A
* MONIDA PASS  N/A       22  22 100 SE18G24    N/A   WCI   8
* RAYNOLDS PAS N/A       25   7  46 SE27G33    N/A   WCI   9
* WHITEHALL    N/A       49  34  56 SW12G22    N/A
* WISE RIVER   N/A       44  34  68 NW10G20    N/A
$$

MTZ009>010-012-014-046-048-049-054-251400-
EAST SLOPES AND CENTRAL MONTANA
CITY           SKY/WX    TMP DP  RH WIND       PRES   REMARKS
CUT BANK       CLOUDY    48  36  63 W30G36    29.91F
GREAT FALLS    CLOUDY    48  37  66 SW21      29.96F
HELENA         CLOUDY    43  36  76 VRB3      30.12F
MALMSTROM AFB  CLOUDY    50  37  61 SW29G37   29.97F
* CONRAD       CLOUDY    45  37  74 S6         N/A
* DEARBORN     N/A       56  36  47 SE12G29    N/A
* EAST GLACIER N/A       45  37  74 W34G50     N/A
* MONARCH      N/A       46  29  52 SW20G28    N/A
* PENDROY      N/A       50  34  54 N9         N/A
* ROGERS PASS  N/A       42  37  83 SE19G39    N/A
* SWEET GRASS  N/A       47  34  61 W30G37     N/A
* WHITE SULPH  N/A       42  34  73 NW8G18     N/A
$$

MTZ011-013-016-021-035-040-045-047-050-051-251400-
NORTH CENTRAL MONTANA
CITY           SKY/WX    TMP DP  RH WIND       PRES   REMARKS
HAVRE          CLOUDY    28  27  96 CALM      29.91F
LEWISTOWN      PTCLDY    39  32  76 SW14      29.98F WCI  31
* N BAR RANCH  CLEAR     37  30  76 VRB3      29.99F
* CHINOOK      CLOUDY    28  27  96 CALM      29.93F
* CHESTER      N/A       34  31  89 SE2        N/A
* DENTON       N/A       40  33  76 SW11       N/A   WCI  33
* GEYSER       N/A       48  33  56 W11G17     N/A
* JUDITH GAP   N/A       42  36  79 W19G27     N/A
* LOMA         N/A       41  35  79 W7         N/A
$$

MTZ017>020-022>027-061-062-251400-
NORTHEAST MONTANA
CITY           SKY/WX    TMP DP  RH WIND       PRES   REMARKS
GLASGOW        PTCLDY    30  25  82 W3        29.99F
GLENDIVE       FAIR      30  25  82 W6        30.03S WCI  24
JORDAN         PTCLDY    34  28  79 CALM      29.99F
SIDNEY         CLOUDY    32  28  85 SW6       30.04S WCI  26
WOLF POINT     MOCLDY    30  27  89 S3        30.01F
* BEAVER HILL  N/A       27  24  88 SW4        N/A
* CIRCLE       N/A       31  27  85 N/A        N/A
* LINDSAY DVD  N/A       29  25  85 W6         N/A   WCI  23
* NAVAJO       N/A       29  28  96 W4         N/A
* PLENTYWOOD A CLOUDY    32  30  92 CALM      29.96F
* POPLAR APT   MOCLDY    30  27  89 SW5       30.02S WCI  25
* SACO         N/A       28  25  89 SE5        N/A   WCI  22
$$

MTZ028>042-056>058-251400-
SOUTHCENTRAL AND SOUTHEAST MONTANA
CITY           SKY/WX    TMP DP  RH WIND       PRES   REMARKS
BAKER          PTCLDY    27  23  85 W12       30.04R WCI  16
BILLINGS       MOCLDY    37  30  76 SW16      30.04F WCI  28
LIVINGSTON     CLOUDY    45  28  51 SW21G32   30.12F
MILES CITY     CLOUDY    32  28  85 CALM      30.04F
* BIG TIMBER A MOCLDY    48  30  50 W28G39    30.07F
* FORSYTH APT  PTCLDY    34  30  85 CALM      30.04F
* LAUREL APT   MOCLDY    36  19  50 SW7        N/A   WCI  30
* ROUNDUP APT  PTCLDY    39  32  76 SW6        N/A   WCI  35
* ALZADA       N/A       28  24  85 W2         N/A
* HYSHAM       N/A       40  29  65 W4         N/A
* LAME DEER    N/A       36  28  73 W8         N/A   WCI  30
* REED POINT   N/A       51  35  54 W11G17     N/A
* ROSCOE HILL  N/A       46  22  39 W3         N/A
$$

REGIONAL REPORTS...DAKOTAS
CITY           SKY/WX    TMP DP  RH WIND       PRES   REMARKS
WILLISTON      CLOUDY    34  28  79 NW8       29.99S WCI  27
DICKINSON      CLOUDY    34  28  79 NW16      29.97R WCI  24
BEACH          CLOUDY    28  28 100 W9        30.02S WCI  19
CROSBY         CLOUDY    27  27 100 NW8       29.98F WCI  19
TIOGA          LGT SNOW  28  28 100 NW8       29.99S WCI  20
WATFORD CITY   CLOUDY    32  28  85 N9        29.97S WCI  24
BISMARCK       FOG       36  32  85 NW9       29.96R WCI  29
GRAND FORKS    FAIR      10   7  88 N5        30.02R WCI   1
FARGO          CLOUDY    21  16  81 N10       29.98R WCI  10
BUFFALO SD     CLEAR     28  23  81 W10       29.96R WCI  19
RAPID CITY     CLEAR     32  21  64 N10       30.01S WCI  24
$$

REGIONAL REPORTS...WYOMING/IDAHO/WASHINGTON
CITY           SKY/WX    TMP DP  RH WIND       PRES   REMARKS
GILLETTE       MOCLDY    34  30  85 W10       30.08S WCI  26
SHERIDAN       CLOUDY    36  30  79 E3        30.07F
CODY           MOCLDY    48  27  44 W22G36    30.11F
YELLOWSTONE LA MOCLDY    23  19  85 CALM      30.37R
SALMON         CLEAR     21  19  92 CALM      30.37F
MULLAN PASS    FOG       37  37 100 W5        30.22S VSB 1 1/4 WCI  33
SAND POINT     FOG       37  37 100 CALM      30.21S VSB 2 1/2
SPOKANE        FOG       45  43  93 S5        30.21F
$$

REGIONAL REPORTS...ALBERTA
CITY           SKY/WX    TMP DP  RH WIND       PRES   REMARKS
CALGARY        MOCLDY    46  27  48 S6        29.77F
LETHBRIDGE     MOCLDY    50  36  59 W24G31    29.85F
MEDICINE HAT   FAIR      36  32  85 SW9       29.82F WCI  29
EDMONTON       MOCLDY    36  30  79 S12       29.65F WCI  28
WATERTON GATE  N/A       48  36  63 W14G22     N/A
CARDSTON       N/A       52  36  55 W7         N/A
MILK RIVER     N/A       45  36  71 W23G29     N/A
$$

REGIONAL REPORTS...SASKATCHEWAN
CITY           SKY/WX    TMP DP  RH WIND       PRES   REMARKS
SWIFT CURRENT  CLOUDY    34  25  70 S18       29.84F WCI  23
REGINA         FOG       25  23  92 SE7       29.94F VSB 1/4  WCI  17
VAL MARIE      N/A       27  25  92 SW6        N/A   WCI  20
ASSINIBOIA     N/A       27  25  92 S6         N/A   WCI  20
CORONACH       N/A       27  27 100 S5         N/A   WCI  21

$$




USA.gov is the U.S. government's official web portal to all federal, state and local government web resources and services.